Location: D?uga
(50.2667°N, 19.7833°E)
Time: 14:17:17
(UTC+00:00)

Cosmos 1908 Rocket - Pass Details

Date: 23 May 2024
Orbit: 603 x 628 km, 82.5° (Epoch: 11 June)

Event Time Altitude Azimuth Distance (km) Brightness Sun altitude
Rises 00:13:13 0° 347° (NNW) 2,923 7.9 -16.0°
Reaches altitude 10° 00:15:28 10° 345° (NNW) 2,008 6.9 -15.9°
Maximum altitude 00:19:54 68° 263° (W) 673 3.6 -15.6°
Enters shadow 00:22:19 26° 187° (S) 1,234 4.5 -15.4°
